This is the latest recevied weather packets stored in our database for station/object N5ATR. If no packets are shown the sender has not sent any weather packets the latest 10 day(s).
| Time | Temp. | Humidity | Pressure | Rain* | Wind** | Luminosity | Snow |
|---|---|---|---|---|---|---|---|
| 1777439038 | 10° C | 16% | 1018.3 hPa | 0 mm | - | 0 W/m² | - |
| 1777438736 | 11.11° C | 16% | 1018.3 hPa | 0 mm | - | 0 W/m² | - |
| 1777438432 | 11.67° C | 15% | 1018.3 hPa | 0 mm | - | 0 W/m² | - |
| 1777438128 | 12.22° C | 15% | 1018.2 hPa | 0 mm | - | 0 W/m² | - |
| 1777437824 | 12.78° C | 14% | 1018.2 hPa | 0 mm | - | 0 W/m² | - |
| 1777437520 | 12.78° C | 14% | 1018 hPa | 0 mm | - | 0 W/m² | - |
| 1777437217 | 13.33° C | 14% | 1018 hPa | 0 mm | - | 0 W/m² | - |
| 1777436914 | 12.78° C | 14% | 1018 hPa | 0 mm | - | 0 W/m² | - |
| 1777436611 | 12.78° C | 14% | 1018 hPa | 0 mm | - | 0 W/m² | - |
| 1777436307 | 13.33° C | 14% | 1018 hPa | 0 mm | - | 0 W/m² | - |
| 1777436003 | 13.33° C | 14% | 1018.1 hPa | 0 mm | - | 0 W/m² | - |
| 1777435700 | 13.33° C | 14% | 1018.1 hPa | 0 mm | - | 0 W/m² | - |
| 1777435395 | 13.33° C | 14% | 1017.8 hPa | 0 mm | - | 0 W/m² | - |
| 1777435090 | 13.33° C | 14% | 1017.8 hPa | 0 mm | - | 0 W/m² | - |
| 1777434787 | 13.33° C | 14% | 1018.1 hPa | 0 mm | - | 0 W/m² | - |
| 1777434485 | 13.33° C | 14% | 1018 hPa | 0 mm | - | 0 W/m² | - |
| 1777434184 | 13.33° C | 14% | 1017.7 hPa | 0 mm | - | 0 W/m² | - |
| 1777433880 | 13.33° C | 14% | 1017.8 hPa | 0 mm | - | 0 W/m² | - |
| 1777433577 | 13.33° C | 14% | 1017.8 hPa | 0 mm | - | 0 W/m² | - |
| 1777433276 | 12.78° C | 14% | 1017.8 hPa | 0 mm | - | 0 W/m² | - |
| 1777432974 | 13.33° C | 14% | 1017.7 hPa | 0 mm | - | 0 W/m² | - |
| 1777432674 | 13.33° C | 14% | 1017.7 hPa | 0 mm | - | 0 W/m² | - |
| 1777432371 | 13.33° C | 14% | 1017.7 hPa | 0 mm | - | 0 W/m² | - |
| 1777432070 | 13.89° C | 13% | 1018.1 hPa | 0 mm | - | 0 W/m² | - |
| 1777431766 | 13.89° C | 13% | 1017.8 hPa | 0 mm | - | 0 W/m² | - |
* Rain latest hour (hover to see other rain measurements)
** Current wind speed in m/s (hover to see current wind gust speed)